Wind_Speed
8 7 6 5 5 5 5 8 9 10 10 10 10 9 8 7 6 6 5 4 3 3 2 2 3 3 3 2 3 3 3 2
11 10 8 5 4 5 6 7 9 11 11 12 11 11 10 10 10 9 8 7 7 6 5 4 4 4 3 3 3 3 3 4
11 9 7 5 3 5 7 8 10 11 12 13 13 12 12 12 12 12 11 10 9 9 9 8 8 7 7 7 7 7 8 9
12 7 5 4 3 5 7 8 9 10 11 13 13 14 14 14 14 14 14 13 13 12 12 12 12 11 11 11 11 12 12 13
12 7 5 4 5 7 8 8 9 10 11 12 14 15 16 16 16 16 15 15 15 15 15 14 14 14 14 15 15 15 16 17
14 10 6 6 4 7 10 10 10 11 11 12 13 14 15 17 18 18 18 18 18 18 17 17 17 17 17 17 17 18 18 19
16 14 8 8 6 7 11 11 10 12 13 14 14 13 14 17 19 20 20 20 20 20 20 20 20 19 19 18 18 19 19 20
20 15 12 10 8 7 11 12 11 11 13 14 15 14 14 15 18 20 22 22 22 22 22 22 22 21 21 20 20 20 21 21
23 19 16 12 9 9 9 13 13 11 10 12 15 16 15 16 17 18 20 22 23 24 24 23 23 22 22 22 22 22 22 23
26 25 20 17 14 13 13 11 13 14 13 12 13 16 18 18 17 17 20 22 23 24 24 23 23 23 23 22 22 22 22 23
31 29 27 22 19 19 18 17 16 17 16 15 15 17 18 20 20 19 19 21 22 23 23 23 22 22 22 22 21 21 20 21
36 34 32 30 27 26 26 24 22 21 20 18 16 17 19 21 22 22 21 22 21 21 21 21 21 21 22 21 20 18 17 18
44 43 41 39 37 35 34 31 27 25 24 21 20 19 20 22 24 24 24 23 21 21 21 22 21 21 21 19 18 18 18 19
42 46 44 43 42 41 39 38 36 33 30 27 27 24 24 25 26 25 26 26 24 22 22 21 21 21 21 21 21 21 22 21
41 40 41 44 43 45 45 45 43 41 37 33 33 31 27 28 28 27 27 28 27 25 24 24 23 24 24 24 25 25 25 24
48 46 44 44 45 48 50 48 48 42 39 39 37 36 33 29 31 29 28 28 30 28 27 27 27 27 28 28 28 29 29 30
52 51 51 51 51 50 52 53 50 47 43 44 42 39 37 30 29 30 30 29 30 31 30 30 30 31 32 33 33 34 33 30
51 51 52 51 51 50 51 53 52 48 40 41 43 39 37 34 33 31 32 31 29 31 32 33 35 35 36 35 36 35 33 32
42 45 44 44 46 46 47 48 46 50 47 41 43 43 39 36 36 34 33 31 30 30 31 33 35 35 35 34 34 38 35 34
34 36 42 42 38 40 44 45 48 46 45 44 39 39 37 36 36 34 34 33 32 32 32 33 33 32 33 31 40 44 37 32
Wind_Direction
142 134 135 144 159 174 199 206 211 219 221 222 227 232 235 244 240 236 233 237 232 216 222 209 165 148 134 123 111 98 79 59
145 131 120 128 158 178 196 209 214 219 222 226 228 232 237 242 248 246 241 241 241 242 240 244 256 241 220 210 215 230 256 260
168 148 132 140 162 192 200 206 217 221 223 227 229 232 238 243 246 252 254 250 247 250 250 248 247 250 257 258 254 252 249 253
190 166 156 162 190 219 212 213 219 226 229 232 234 234 237 242 245 247 250 254 254 252 251 254 255 254 254 256 259 263 263 263
188 183 180 188 211 218 221 222 222 224 228 230 234 236 239 244 247 250 253 254 256 256 257 254 253 256 261 263 266 268 271 273
195 208 196 185 209 220 216 218 223 226 231 233 238 241 243 246 248 248 251 252 254 256 256 260 260 258 257 260 264 269 272 277
207 212 201 212 218 226 219 213 217 223 230 234 239 244 245 245 246 247 249 251 253 254 256 256 257 262 265 264 266 269 272 274
207 214 204 207 216 215 213 213 215 220 229 235 240 244 247 249 249 248 248 250 253 255 256 258 259 261 263 266 269 273 274 278
212 219 211 211 209 217 222 224 224 228 231 237 241 246 249 252 253 254 252 251 252 255 258 259 259 258 260 262 265 268 273 279
216 221 216 215 217 222 218 225 234 235 240 243 244 243 247 251 255 257 255 254 253 255 257 258 259 260 260 262 266 271 275 279
218 223 223 219 223 227 228 228 229 234 237 242 246 247 246 249 252 256 257 255 255 257 257 257 257 258 260 262 266 268 269 274
217 221 226 226 226 229 231 231 232 234 240 239 249 258 252 249 252 252 255 258 259 260 261 258 254 254 258 259 260 266 269 272
222 224 223 226 228 232 235 236 237 240 244 245 253 260 263 254 252 252 253 257 259 259 257 255 253 250 251 256 258 261 266 269
227 229 230 231 234 235 238 238 240 241 245 246 251 253 263 258 253 254 252 255 257 259 258 258 255 251 252 253 258 265 265 270
225 227 229 234 239 241 242 243 241 240 239 242 250 253 257 262 255 254 253 253 256 257 256 254 255 254 254 256 261 263 269 266
230 231 233 235 236 240 243 246 248 247 249 249 247 250 251 261 255 254 255 253 254 257 258 258 257 257 259 261 262 264 266 271
233 235 237 239 241 241 243 245 246 249 249 248 245 245 248 250 249 250 253 254 254 256 257 259 261 261 263 264 266 267 267 269
237 239 242 245 247 247 245 244 244 243 244 246 241 241 243 240 244 243 247 250 254 256 258 260 261 263 264 268 272 273 270 270
238 237 239 242 246 246 244 241 243 242 244 244 242 239 240 239 244 242 243 248 253 255 256 260 262 264 267 271 282 277 268 272
235 236 236 235 239 241 236 234 235 236 241 246 245 242 236 237 244 247 245 243 246 248 253 261 263 260 259 255 262 270 272 263
Height
3169 3170 3171 3172 3174 3176 3177 3179 3180 3182 3183 3184 3186 3187 3189 3190 3191 3192 3193 3194 3195 3196 3197 3197 3197 3197 3198 3198 3198 3198 3199 3199
3168 3169 3170 3171 3172 3174 3176 3177 3179 3180 3181 3182 3184 3185 3187 3188 3189 3190 3191 3193 3194 3195 3196 3196 3197 3198 3197 3197 3198 3198 3198 3197
3166 3168 3169 3170 3171 3172 3173 3175 3177 3178 3179 3180 3181 3183 3185 3186 3188 3189 3189 3190 3191 3193 3194 3195 3195 3196 3197 3197 3197 3197 3197 3196
3165 3166 3168 3169 3170 3170 3171 3172 3174 3176 3177 3178 3180 3181 3182 3184 3185 3186 3187 3188 3189 3190 3192 3193 3194 3194 3194 3194 3194 3195 3195 3195
3163 3164 3165 3166 3168 3169 3170 3171 3172 3174 3175 3177 3178 3178 3179 3181 3182 3184 3185 3186 3187 3187 3188 3190 3191 3191 3192 3192 3192 3192 3192 3192
3160 3162 3163 3165 3166 3166 3168 3169 3170 3172 3173 3175 3175 3176 3177 3178 3179 3180 3181 3183 3184 3185 3185 3186 3187 3188 3188 3189 3189 3189 3189 3189
3157 3159 3160 3162 3163 3164 3165 3167 3168 3169 3170 3172 3173 3173 3174 3175 3175 3177 3178 3179 3180 3181 3182 3183 3183 3184 3185 3185 3185 3185 3185 3185
3153 3156 3157 3159 3160 3161 3163 3164 3165 3166 3167 3169 3170 3171 3171 3172 3172 3173 3174 3175 3176 3177 3178 3179 3180 3181 3181 3181 3181 3181 3181 3181
3149 3152 3154 3156 3157 3159 3160 3161 3162 3164 3165 3166 3167 3168 3168 3169 3169 3170 3171 3171 3172 3172 3173 3175 3176 3176 3177 3177 3177 3177 3177 3177
3144 3147 3150 3152 3153 3155 3157 3158 3159 3160 3161 3162 3163 3163 3164 3165 3166 3166 3167 3167 3168 3168 3169 3170 3171 3172 3172 3173 3173 3173 3173 3172
3138 3141 3145 3148 3149 3151 3153 3154 3155 3156 3157 3157 3158 3159 3160 3161 3161 3162 3163 3163 3163 3164 3165 3166 3167 3168 3168 3169 3169 3169 3169 3168
3131 3135 3138 3141 3143 3145 3146 3148 3149 3151 3152 3153 3154 3155 3156 3156 3157 3157 3158 3158 3160 3160 3161 3162 3163 3164 3164 3165 3165 3165 3164 3164
3122 3127 3130 3132 3134 3137 3139 3142 3144 3146 3147 3149 3149 3151 3151 3151 3151 3152 3153 3154 3155 3156 3156 3157 3158 3159 3160 3160 3160 3161 3161 3160
3116 3119 3123 3125 3127 3130 3133 3135 3137 3139 3141 3142 3144 3145 3146 3146 3146 3147 3148 3149 3150 3151 3152 3153 3154 3155 3155 3156 3156 3157 3156 3156
3109 3112 3115 3117 3120 3123 3124 3127 3128 3130 3132 3135 3137 3138 3139 3140 3141 3141 3142 3143 3144 3146 3146 3147 3149 3149 3151 3151 3151 3152 3150 3150
3099 3103 3106 3108 3112 3113 3115 3117 3119 3124 3127 3128 3129 3131 3132 3134 3134 3135 3136 3137 3138 3140 3141 3142 3143 3144 3145 3145 3145 3145 3144 3143
3088 3092 3095 3099 3101 3104 3106 3108 3112 3115 3116 3117 3120 3122 3125 3127 3128 3129 3130 3131 3132 3133 3135 3135 3136 3137 3138 3138 3137 3137 3137 3136
3078 3082 3085 3088 3090 3093 3095 3098 3102 3104 3106 3108 3110 3113 3116 3118 3120 3121 3122 3124 3125 3127 3127 3128 3128 3129 3129 3130 3130 3130 3129 3128
3067 3071 3074 3077 3079 3080 3083 3087 3091 3094 3097 3099 3100 3103 3107 3110 3112 3113 3115 3117 3119 3120 3120 3120 3120 3121 3122 3122 3123 3122 3121 3120
3055 3060 3064 3066 3069 3071 3074 3077 3080 3084 3087 3090 3092 3095 3099 3102 3103 3105 3108 3110 3111 3112 3112 3113 3113 3113 3113 3113 3112 3113 3114 3114